Wind_Speed
14 15 15 15 14 13 13 12 12 12 12 12 12 12 12 12 12 12 12 12 12 13 12 11 10 10 10 11 12 13 15 16 15 10 7 10 10 8 6 5 11 16 15 13 13 11 8 4 4 6 4 2 0 0 2 3 1 2 2 2 1 2 3 5 7 6 4 4 5 5 4 6 8 3 2 5 5 5 6 6 5 6 8 10 15 21 21 21
14 15 15 16 16 15 14 13 13 12 12 12 12 12 12 12 13 13 12 12 12 13 12 11 10 9 10 11 13 14 16 17 13 11 10 10 9 7 8 8 14 18 16 13 14 12 8 3 4 5 4 2 0 1 2 2 2 2 2 2 3 4 4 4 7 6 4 6 7 6 4 4 6 5 4 6 5 5 7 5 6 9 9 12 17 21 20 21
13 14 15 16 17 16 16 15 14 13 13 13 12 12 13 13 13 12 12 12 11 12 12 11 10 9 10 11 12 14 15 12 7 6 4 5 5 9 9 14 17 18 15 11 11 11 9 8 10 6 3 1 1 2 1 1 2 2 2 2 4 3 3 4 5 7 4 7 10 8 5 3 2 2 3 7 7 6 7 6 7 9 9 10 13 17 19 19
13 14 15 16 17 17 17 17 16 15 14 13 13 13 13 13 13 12 11 11 10 10 11 11 9 9 9 10 11 12 11 6 2 2 3 7 2 8 13 16 17 16 13 7 9 10 9 10 11 5 3 0 2 0 1 3 3 1 2 3 4 1 2 4 5 6 4 7 10 8 8 6 2 0 3 10 9 4 6 8 9 11 13 12 11 14 17 16
14 14 15 16 17 17 18 18 17 16 15 14 14 13 14 14 13 11 10 9 9 9 10 10 8 8 9 9 9 10 7 2 2 4 3 6 3 10 16 16 14 14 12 8 10 11 8 7 6 4 3 1 2 1 3 4 3 1 3 2 0 1 2 2 3 5 1 4 7 8 9 6 3 1 4 13 9 5 7 8 10 13 14 14 13 14 14 14
14 14 15 16 17 17 18 18 17 16 16 15 14 14 14 13 12 10 9 8 8 8 8 8 7 7 8 7 7 6 3 1 4 5 3 5 3 12 18 14 13 14 13 11 12 11 7 5 5 3 3 1 2 3 4 4 5 2 2 1 3 1 2 2 2 6 4 8 9 9 6 5 5 2 3 9 6 4 7 8 10 11 14 17 16 14 12 11
14 14 15 16 17 17 18 18 17 17 16 16 15 15 14 13 11 9 7 6 6 7 7 6 7 6 8 7 4 4 2 3 6 6 4 5 2 14 19 12 13 17 14 12 11 8 6 6 4 4 3 0 3 5 5 2 5 4 1 1 2 3 3 4 3 7 9 12 11 7 6 6 6 4 3 4 3 5 10 10 10 12 15 17 14 11 11 11
14 15 15 16 17 18 18 18 18 17 16 16 16 15 13 12 10 8 6 5 5 6 5 5 6 5 8 6 2 3 1 4 8 8 4 3 1 14 20 14 13 16 13 11 10 7 6 6 5 3 2 3 2 3 4 2 2 3 2 1 2 3 4 4 4 1 6 9 9 8 7 4 3 3 4 3 4 8 11 11 12 12 13 13 11 11 10 10
15 15 16 17 18 19 19 19 18 17 16 17 16 14 13 11 9 8 6 5 4 4 4 4 4 5 6 4 1 2 1 4 9 8 5 3 2 12 19 16 14 15 12 9 8 7 5 4 5 4 3 3 1 2 3 3 1 2 4 3 3 2 3 4 7 8 8 7 7 10 7 3 1 0 2 2 6 12 12 12 12 12 11 10 10 10 9 9
15 16 17 17 18 19 19 19 18 17 17 16 16 14 12 10 8 7 6 5 4 4 4 3 3 4 5 4 3 2 2 5 10 9 8 6 2 12 17 15 16 15 10 7 8 7 4 5 5 3 3 2 2 2 3 4 3 5 7 5 4 2 3 5 8 10 8 7 5 8 7 2 3 2 2 2 8 14 13 12 12 11 11 10 9 9 10 10
16 17 17 18 19 19 19 19 18 17 16 15 15 14 13 11 8 7 5 5 4 4 3 2 3 3 3 2 3 1 3 3 9 8 8 5 2 10 13 13 15 15 10 5 6 8 5 6 5 3 2 2 2 3 3 2 7 9 9 7 4 3 5 6 9 9 5 6 6 6 6 3 4 2 2 5 9 14 15 13 12 11 9 9 9 8 8 9
16 17 17 18 20 20 19 19 18 17 16 15 14 14 13 12 10 7 6 5 4 3 3 1 2 2 3 1 3 5 3 4 8 7 5 3 1 6 9 12 13 14 11 5 3 11 8 3 3 2 2 1 2 3 2 2 7 7 5 6 3 4 6 6 8 7 4 5 7 4 5 2 2 2 2 7 10 12 15 13 12 11 8 7 8 7 6 9
16 17 18 19 20 20 20 19 18 17 15 14 13 13 13 11 10 8 6 5 4 3 2 1 2 1 1 2 4 3 4 6 7 7 5 2 2 4 7 11 12 12 11 6 1 7 11 8 3 1 2 1 1 1 2 1 4 4 3 4 4 3 5 5 4 5 5 4 6 3 3 3 3 3 3 9 11 11 13 12 11 10 8 7 7 6 6 8
17 17 18 20 21 20 20 20 19 17 15 14 13 12 12 10 9 8 6 5 3 1 1 1 2 1 0 5 5 2 3 6 7 8 6 4 5 4 5 9 11 11 11 8 4 1 8 11 5 2 2 1 1 1 2 2 3 2 3 2 3 3 1 5 1 5 5 2 2 5 3 4 3 3 4 7 12 13 12 11 11 9 8 7 7 7 6 8
18 18 19 20 21 21 21 20 19 17 15 14 12 11 11 10 8 6 5 4 2 0 0 2 1 1 1 5 5 3 4 6 7 8 7 6 7 4 4 8 9 9 10 10 8 3 3 5 2 1 2 1 3 3 2 2 3 2 3 1 2 3 2 4 5 1 4 2 4 6 2 2 2 3 5 6 11 13 12 11 10 10 9 8 7 7 7 7
18 18 20 21 21 22 21 20 19 16 15 13 12 11 10 8 5 4 4 3 2 2 0 2 1 0 1 2 4 4 3 3 6 8 7 7 9 4 3 6 6 6 9 7 6 6 4 1 1 2 1 2 3 4 3 3 2 2 3 2 0 3 3 2 4 4 3 4 4 4 2 1 2 2 3 6 11 11 11 11 11 10 10 9 7 7 7 6
19 19 20 21 22 22 21 21 18 16 15 13 11 10 8 5 1 1 2 2 2 2 2 1 1 1 1 3 3 3 3 5 8 9 7 8 10 7 4 5 4 5 6 4 3 4 1 0 1 1 2 3 2 3 3 1 1 2 2 1 1 2 3 4 3 4 1 3 3 4 3 1 1 2 1 3 8 10 10 11 11 11 9 9 8 6 6 6
19 20 21 22 22 22 21 21 18 16 14 13 12 9 6 4 2 1 0 2 0 1 1 1 1 1 2 4 2 4 10 11 10 6 5 7 10 10 4 3 5 6 3 2 1 1 1 1 1 1 2 3 2 3 3 3 4 3 1 2 1 2 3 3 4 3 1 4 5 5 4 1 1 3 1 2 2 9 11 11 11 11 10 9 8 7 6 6
20 21 22 23 23 22 22 21 18 16 13 12 11 6 6 5 3 2 2 3 2 1 1 2 0 1 2 5 5 9 13 11 7 4 5 6 9 10 2 3 5 5 3 2 1 1 2 2 3 3 1 2 4 5 5 5 5 4 2 3 2 2 2 1 2 2 1 4 5 6 5 3 4 5 3 3 1 5 7 8 9 9 10 8 7 6 6 7
20 22 23 23 23 23 22 21 18 15 11 12 11 4 5 5 3 2 2 2 2 3 3 3 3 1 5 6 6 10 11 5 2 0 5 6 9 8 1 2 5 5 3 3 2 1 3 3 1 4 6 7 8 8 5 3 5 6 4 3 2 2 2 2 2 1 1 4 1 4 7 5 7 8 4 1 0 3 5 6 8 8 8 8 8 7 7 8
21 22 23 23 23 23 23 21 17 13 10 13 12 5 2 2 3 3 4 3 5 7 7 6 4 5 9 8 6 6 6 3 3 2 4 6 8 8 1 2 5 4 2 2 2 2 3 4 5 7 8 7 8 8 5 3 5 5 4 4 2 1 2 2 2 1 1 4 1 2 7 5 6 7 2 1 2 6 7 7 8 10 9 8 8 9 8 7
22 22 23 24 23 23 23 21 16 9 8 12 10 4 2 1 2 4 2 4 7 6 6 5 2 6 10 10 9 3 3 2 6 5 4 6 3 3 0 4 5 1 2 1 2 3 3 3 8 7 5 2 1 4 4 3 4 4 3 4 1 1 3 1 2 2 2 3 2 2 4 3 2 5 5 1 2 5 6 7 8 10 10 8 9 9 8 6
22 23 24 24 23 22 22 21 13 6 9 12 7 4 1 6 4 6 2 2 6 3 3 3 2 4 6 6 5 4 3 1 3 6 5 7 1 2 4 4 4 2 2 2 4 3 1 4 6 3 4 4 1 1 3 2 2 3 3 3 2 3 3 1 2 4 3 3 4 3 3 3 1 3 6 4 3 3 4 6 6 7 9 10 11 10 9 9
23 24 25 25 23 22 22 18 8 5 11 11 3 3 9 12 4 4 2 0 4 5 3 4 4 4 4 2 5 8 2 3 3 3 5 7 3 2 3 3 4 1 1 3 5 4 4 5 2 4 5 5 1 1 3 4 2 2 4 4 3 5 4 1 4 4 3 4 4 6 4 1 2 5 8 6 4 4 4 5 6 7 8 9 8 8 9 11
24 25 25 25 23 21 20 12 3 8 14 8 1 4 14 16 5 5 3 2 2 5 3 2 1 3 3 2 5 6 1 1 5 4 5 8 5 3 1 2 3 1 4 4 5 2 5 5 4 5 3 4 3 2 3 5 3 3 4 7 7 9 6 6 8 5 2 1 2 5 2 2 4 8 10 6 5 6 4 5 8 9 8 6 6 6 7 9
25 26 26 24 22 20 14 3 4 13 11 2 1 8 17 17 4 8 3 4 2 5 3 0 0 1 2 2 3 3 4 3 6 4 5 8 7 4 2 1 1 2 5 3 3 2 3 3 4 5 4 4 3 3 4 5 3 3 4 7 8 8 7 9 10 5 1 1 2 4 2 1 3 8 11 8 8 9 6 6 8 9 8 7 7 7 7 8
26 26 25 23 21 18 9 2 9 12 4 1 5 11 18 16 1 8 2 5 2 3 2 1 0 1 1 2 2 4 1 5 3 1 3 7 4 3 2 2 0 2 3 3 1 2 2 1 1 3 4 4 3 3 5 5 5 4 5 6 10 9 9 11 9 4 2 2 2 3 2 0 2 7 12 10 8 10 9 8 8 8 9 9 8 8 9 10
26 26 23 20 18 16 9 7 10 5 1 5 8 13 19 11 4 5 4 3 2 2 1 2 1 1 2 0 2 3 2 3 2 2 2 5 3 4 2 4 5 4 2 5 2 5 2 2 3 4 3 4 5 5 7 8 5 2 2 7 8 8 7 7 5 2 1 3 1 4 3 1 3 4 8 10 9 11 13 12 10 9 11 11 9 9 10 11
27 24 21 18 16 13 10 9 8 3 3 6 10 16 16 4 4 3 4 2 1 1 0 1 1 2 3 2 1 1 1 1 1 3 2 3 1 3 2 5 5 4 1 4 4 6 3 5 6 6 4 5 6 5 7 7 3 3 11 13 9 9 8 5 3 2 3 2 2 6 6 2 3 2 5 8 11 13 12 12 10 9 10 10 9 10 10 10
26 22 18 16 13 9 9 10 6 3 4 8 14 16 9 3 4 5 3 1 2 2 1 1 1 1 3 3 3 3 1 2 2 1 2 2 2 4 2 3 4 3 2 3 2 6 4 3 4 4 5 7 4 1 3 6 5 7 12 11 9 8 5 4 3 3 2 1 2 5 8 4 2 3 6 9 12 13 11 10 9 8 10 11 9 9 10 10
24 18 15 14 11 6 5 6 2 1 6 12 16 12 3 2 4 5 2 1 2 2 2 2 2 1 4 2 2 2 1 3 2 2 1 1 3 5 1 0 3 3 3 4 2 4 5 1 2 4 7 6 5 3 2 5 7 6 6 6 6 4 3 3 2 2 1 4 3 2 7 7 3 4 6 9 12 13 13 12 12 11 11 11 10 9 10 10
21 16 14 13 10 7 5 3 4 6 10 12 12 6 3 2 3 2 1 3 2 2 2 2 2 0 2 2 1 2 2 2 1 3 2 1 2 1 2 3 1 2 4 2 2 5 4 4 3 3 4 7 7 4 3 4 5 4 5 5 5 2 2 2 1 0 2 5 2 3 4 5 6 6 6 8 9 11 13 13 14 14 13 12 11 9 9 9
19 15 13 10 9 8 6 5 7 8 9 8 6 4 5 4 1 2 2 2 2 3 2 2 1 2 3 2 2 3 1 2 1 2 2 2 1 2 3 4 5 2 2 3 1 4 4 5 3 0 1 5 9 5 3 3 4 5 6 5 4 3 2 0 2 2 2 4 1 5 3 2 4 5 6 9 11 12 12 12 13 13 14 13 12 10 9 10
18 14 12 9 7 6 5 5 7 6 6 5 4 4 4 3 1 2 2 3 3 3 2 2 1 2 2 1 3 2 1 2 1 3 2 2 2 1 3 3 4 4 2 2 1 1 1 4 3 4 2 5 9 9 10 9 5 4 4 4 5 4 3 3 3 2 2 1 2 5 3 3 3 3 4 5 7 9 11 11 10 10 11 11 9 9 10 10
17 13 10 8 5 3 2 4 5 3 1 4 5 4 3 1 3 1 2 4 2 2 3 2 2 3 2 3 3 1 2 2 0 3 2 1 2 3 2 3 4 4 4 2 2 2 2 5 7 4 2 8 9 9 11 10 4 2 1 4 3 4 4 3 3 3 3 2 2 3 3 3 3 4 4 1 1 5 9 10 10 10 10 9 8 9 10 10
15 11 7 5 3 2 1 2 3 3 2 4 5 3 1 3 2 2 3 3 2 3 5 5 3 3 2 3 3 3 0 1 1 2 1 1 2 3 3 3 5 6 5 4 2 1 1 5 7 4 2 6 9 9 9 7 5 2 1 3 2 3 6 4 0 1 3 2 1 2 3 4 2 4 3 3 1 3 7 10 12 12 12 12 10 9 10 11
16 9 4 3 4 2 2 2 5 6 4 5 4 0 2 3 3 4 3 2 2 2 2 3 1 2 1 2 2 3 2 1 1 1 1 1 1 2 3 3 4 7 7 4 2 2 2 3 6 4 3 4 4 9 5 1 5 5 2 5 3 3 4 5 1 3 2 1 2 2 3 4 1 3 2 3 4 6 8 10 12 12 13 14 12 11 11 12
16 8 3 3 5 1 5 6 8 6 5 5 2 2 2 2 3 4 3 3 2 0 3 1 2 1 2 2 2 4 1 2 1 1 0 0 2 2 2 3 2 5 7 5 1 2 3 1 7 4 1 4 2 8 3 4 3 3 3 5 4 3 1 3 3 1 1 1 3 2 3 3 4 4 2 5 8 8 9 10 11 13 14 14 13 12 11 11
10 3 2 5 5 4 10 10 6 4 5 3 0 2 1 3 4 5 4 3 1 2 2 2 1 1 1 3 3 3 1 1 2 1 1 1 2 2 2 2 1 2 5 5 4 2 2 1 5 4 2 3 3 4 3 2 4 3 0 2 1 2 3 3 3 3 3 2 2 2 2 3 5 5 5 9 11 10 10 10 11 13 14 13 12 12 11 10
4 2 1 5 4 11 12 8 4 4 3 0 2 2 2 3 5 5 5 4 2 1 1 2 1 1 1 2 3 1 1 0 2 2 1 1 1 2 2 2 1 2 2 4 3 1 1 2 2 5 5 2 1 1 5 5 3 2 2 3 2 1 2 3 2 2 3 3 2 0 2 5 5 2 4 7 8 9 11 11 11 11 12 11 11 12 11 10
3 2 2 4 7 14 9 5 3 2 1 1 2 3 3 2 4 6 4 4 4 2 1 2 1 1 1 1 1 1 1 2 1 1 1 1 1 1 3 1 0 3 2 4 3 1 1 2 1 4 3 1 4 3 4 5 6 5 3 3 4 2 3 3 1 2 2 3 3 3 2 6 4 1 2 4 3 5 7 9 8 8 9 10 9 10 11 10
2 2 3 1 11 10 4 3 1 1 2 1 2 3 4 3 3 5 4 2 1 0 1 1 1 1 1 2 1 0 2 2 1 1 2 1 2 3 3 3 1 2 1 2 2 1 2 3 3 2 3 3 6 3 1 4 6 5 3 3 3 2 3 5 2 3 1 1 1 2 1 5 4 2 3 4 2 1 3 5 5 5 6 7 6 6 8 8
2 0 4 3 12 4 5 2 2 3 1 4 3 4 3 2 3 3 3 3 1 1 2 1 0 1 0 1 1 2 2 2 1 1 1 0 2 5 5 7 5 1 3 2 3 1 2 3 3 2 5 4 5 5 2 1 3 3 1 2 2 1 2 5 4 3 3 2 1 2 1 4 4 4 3 3 3 2 3 3 5 4 3 4 5 5 6 6
1 3 3 3 9 2 4 2 2 2 3 5 4 4 3 2 3 2 3 3 1 1 1 1 1 1 0 1 2 2 1 2 1 2 0 1 2 4 4 6 7 6 3 1 1 1 1 1 3 2 4 5 5 6 5 4 3 2 2 4 2 1 2 3 1 3 2 3 4 3 2 5 4 4 4 4 4 4 3 3 4 5 4 4 5 5 5 6
1 2 2 2 4 1 2 3 3 1 4 4 4 6 4 2 3 4 4 3 1 2 1 1 1 2 2 2 4 3 3 4 2 2 2 1 3 3 5 5 7 6 5 3 2 2 2 2 3 4 3 1 0 1 2 3 4 2 3 5 5 3 2 3 2 3 1 3 3 4 4 5 4 4 5 6 5 4 4 4 4 3 4 5 5 5 5 6
2 1 1 3 2 2 1 1 3 1 3 2 2 4 2 3 5 3 4 2 0 2 1 1 2 3 4 5 5 4 5 4 2 3 3 3 3 2 4 5 5 6 9 6 3 3 4 3 3 6 5 3 4 4 4 1 2 3 5 7 6 5 2 3 4 3 3 3 2 3 3 1 6 5 4 5 5 4 3 3 4 4 4 4 5 6 6 6
2 0 1 0 2 2 1 2 3 2 2 2 1 3 2 3 5 3 1 1 1 2 2 2 3 3 2 3 4 3 5 5 4 4 2 4 4 3 5 5 5 7 11 8 4 3 5 3 3 6 5 1 4 4 4 3 5 4 5 7 8 8 6 6 4 1 2 3 2 6 3 3 5 5 3 3 4 3 3 3 3 4 4 4 4 4 4 4
1 1 1 2 1 1 1 1 1 1 1 2 2 2 3 4 3 2 2 1 2 2 2 2 5 4 1 2 4 2 3 5 5 4 3 3 4 4 5 4 3 7 9 6 3 3 5 2 1 4 4 4 2 2 4 3 3 5 7 8 8 9 10 7 2 4 2 3 4 6 3 4 4 5 3 2 2 3 3 3 3 3 4 4 5 5 4 3
1 1 2 1 0 3 3 2 1 2 1 1 1 1 2 4 4 4 3 2 4 3 4 3 3 3 3 3 5 3 1 2 2 3 2 2 3 3 3 3 3 6 7 4 3 3 4 1 1 3 5 4 3 3 3 2 2 5 8 8 7 7 9 7 4 5 3 3 2 1 6 8 4 3 4 3 3 3 3 4 4 4 4 4 5 5 5 4
1 1 2 3 2 2 2 2 2 2 2 2 1 2 2 3 4 4 3 1 1 2 3 5 4 1 3 4 6 4 4 7 4 1 2 1 2 1 1 1 2 4 6 4 3 3 3 1 1 4 5 3 5 2 2 3 2 4 8 8 6 6 7 8 7 6 4 2 3 3 7 7 4 4 6 5 5 5 6 6 6 4 4 4 4 4 4 4
2 2 0 1 2 2 1 1 2 3 2 2 1 2 2 4 3 2 3 2 4 3 2 7 7 2 4 6 6 3 6 8 7 5 5 5 2 1 1 2 2 2 5 3 2 3 3 2 1 4 4 2 5 6 4 3 3 5 8 9 8 6 5 6 7 7 5 4 5 5 5 2 3 5 7 6 6 7 7 7 6 4 4 4 3 2 2 3
4 1 1 2 1 2 1 1 2 2 1 2 3 3 4 6 5 1 0 2 1 3 4 8 7 4 4 5 3 5 8 8 8 6 5 5 3 2 1 2 4 2 1 1 1 3 3 3 2 3 4 4 4 5 5 4 5 4 4 3 3 4 3 3 6 8 7 4 2 2 2 1 1 4 6 6 6 6 6 5 5 4 4 5 4 3 3 1
Wind_Direction
15 16 13 9 6 2 358 355 352 348 345 340 338 336 334 332 328 327 323 321 320 320 325 327 329 330 329 331 329 326 325 323 320 311 261 267 282 250 238 208 176 164 157 158 157 145 125 123 162 159 144 150 173 5 166 171 134 69 90 103 167 184 190 188 185 193 162 163 177 169 193 155 140 142 121 103 80 99 92 77 79 56 68 98 117 132 138 141
11 12 10 9 6 3 0 357 354 349 346 343 340 336 333 330 326 325 321 319 316 315 321 325 330 333 335 338 331 330 329 324 314 288 264 274 283 238 206 181 173 168 159 159 160 143 129 149 164 141 116 105 286 182 167 181 157 129 116 141 219 199 207 204 182 188 167 160 166 161 175 163 148 146 133 128 128 120 100 89 95 86 86 100 117 131 139 143
5 6 6 7 6 4 3 359 358 353 350 347 342 337 331 328 326 325 320 316 313 315 322 327 334 340 344 339 332 333 327 325 315 274 297 337 274 226 191 171 174 172 161 159 160 143 133 154 153 129 85 73 283 170 173 217 176 174 120 177 243 215 238 251 195 195 194 165 158 158 162 155 169 161 139 138 139 136 131 136 127 120 125 122 127 135 142 147
0 2 3 3 3 4 4 1 360 355 352 349 343 340 332 329 328 326 324 319 316 321 328 333 341 348 349 340 332 330 327 332 321 286 356 3 355 189 182 169 171 177 174 169 161 144 120 133 142 118 83 127 302 145 199 217 183 189 149 202 243 201 265 259 219 215 206 166 155 150 152 151 174 238 142 138 133 157 171 166 154 148 145 139 141 143 148 151
357 359 2 0 1 2 2 1 359 356 353 348 344 340 335 332 331 333 335 332 331 332 334 339 347 355 350 339 331 326 339 42 292 320 349 352 23 171 175 166 169 179 179 170 159 152 126 114 115 83 82 133 316 69 224 206 155 182 196 189 337 138 250 248 223 229 196 110 134 148 155 150 129 69 156 150 152 184 179 169 157 150 148 145 146 148 151 154
357 358 0 358 358 359 360 360 358 357 353 349 346 341 339 335 333 339 345 346 341 337 340 344 352 359 349 336 329 334 11 118 287 317 315 348 19 172 168 163 169 165 161 154 148 146 133 94 82 105 106 69 222 210 249 209 160 206 238 74 33 333 272 313 242 230 177 134 158 168 151 129 120 111 167 164 172 160 135 140 146 144 145 145 145 151 155 159
0 359 360 357 356 357 358 359 357 357 353 350 347 344 344 341 339 343 350 354 343 344 349 349 358 1 349 339 324 5 56 252 301 331 309 340 29 171 169 169 166 160 158 151 143 139 131 108 107 137 119 279 213 221 253 207 175 201 203 85 41 16 344 333 289 239 203 162 160 150 124 134 144 140 143 170 193 122 120 126 135 137 141 143 146 156 161 163
2 360 358 357 356 357 358 358 357 356 353 350 347 347 349 346 344 347 356 356 347 358 358 353 9 5 352 348 317 10 29 275 321 347 341 350 127 171 176 179 170 170 170 161 153 145 133 126 147 150 130 234 204 230 233 120 158 192 137 107 73 40 13 5 9 314 186 151 130 119 120 133 140 140 132 163 168 125 123 129 131 136 141 146 154 161 162 165
2 359 357 357 355 356 356 356 356 355 352 349 346 347 350 346 344 350 356 352 348 0 2 5 19 19 357 339 24 31 287 325 360 15 26 18 181 176 181 184 180 180 173 173 171 156 147 149 185 175 159 236 252 287 233 152 219 160 120 94 94 68 18 24 33 60 96 102 115 125 116 104 36 192 105 150 159 131 127 133 135 142 148 154 159 162 164 169
359 358 356 356 354 355 355 355 354 353 352 349 345 345 347 343 339 347 348 342 343 349 9 26 25 28 352 321 54 54 256 14 26 32 28 19 170 177 183 189 189 184 170 173 180 168 166 176 192 163 135 257 291 293 250 197 179 114 113 105 98 94 37 26 38 59 77 65 77 112 104 52 337 341 104 147 153 134 131 138 141 148 155 160 160 163 167 172
357 356 355 354 354 354 354 354 353 352 350 348 346 343 341 338 334 338 337 333 332 347 10 14 24 32 336 339 88 211 233 20 10 10 16 18 171 187 193 198 196 190 171 151 192 197 185 176 172 116 123 262 304 330 320 144 122 115 118 107 85 81 59 31 43 41 41 44 30 81 88 10 354 349 174 155 151 139 137 144 147 152 160 164 162 163 168 176
355 353 353 354 354 353 353 354 352 350 348 349 349 342 337 333 329 325 323 324 320 337 355 354 41 43 326 324 179 225 261 331 336 339 347 11 184 211 213 212 209 200 176 120 209 212 201 178 94 90 243 299 355 341 341 97 112 125 119 103 100 74 46 27 53 41 36 41 352 35 91 349 332 303 222 152 150 143 140 148 152 155 161 165 167 168 170 179
354 351 353 354 352 352 352 352 351 348 347 352 350 343 337 329 320 313 310 314 308 326 350 18 35 31 344 280 237 254 303 307 314 310 300 276 213 233 229 222 218 209 186 146 166 211 214 240 350 345 245 60 346 264 182 136 97 121 86 91 112 78 23 8 83 85 62 46 343 11 123 222 272 284 212 149 147 144 142 152 155 157 164 166 175 177 176 181
352 351 353 352 351 351 351 351 349 346 348 353 349 343 338 326 310 296 296 304 304 333 2 39 25 22 206 265 275 329 316 293 292 284 272 232 212 230 238 224 213 207 200 202 238 253 218 238 279 307 251 164 181 150 139 76 45 89 71 63 91 103 356 346 42 127 85 45 44 72 129 224 273 262 205 157 150 149 147 156 158 159 167 168 181 186 183 187
351 350 353 351 350 350 351 350 347 346 350 352 347 340 333 323 304 283 286 295 288 227 356 40 30 333 319 286 296 332 307 291 291 288 276 233 207 220 233 208 200 202 208 218 233 256 236 236 247 260 276 228 135 99 86 40 13 52 86 306 10 103 153 2 340 77 106 88 75 85 122 254 292 235 210 174 153 151 151 158 161 164 172 172 184 193 190 196
350 349 351 349 349 350 350 348 346 347 350 350 344 338 335 329 306 276 280 280 265 222 185 52 44 333 32 307 330 346 314 293 305 305 283 235 212 214 183 174 174 189 209 219 226 243 264 267 198 183 157 123 114 104 87 46 1 9 85 183 131 119 152 90 324 298 137 120 63 74 119 142 319 299 239 179 156 153 155 162 165 168 176 177 185 198 194 194
349 348 350 348 348 349 349 347 345 347 348 349 346 343 349 352 338 280 279 250 237 212 185 90 358 355 284 289 328 334 308 300 306 303 268 234 217 204 142 139 135 153 196 203 197 236 267 10 239 236 71 82 93 104 103 93 252 292 56 124 191 157 140 133 194 260 208 113 72 73 90 165 281 10 340 186 162 159 161 166 170 173 180 182 188 198 195 191
347 347 348 347 347 348 349 346 344 347 349 351 351 358 21 32 70 71 133 152 132 196 189 264 309 34 283 292 319 295 300 300 304 299 240 226 212 202 161 111 124 124 120 73 130 234 53 17 28 80 34 58 95 121 140 185 197 204 136 118 238 143 116 138 172 221 172 103 117 115 93 116 122 84 43 325 176 172 174 172 172 178 183 185 188 194 196 194
346 347 346 346 347 347 348 345 343 346 351 359 360 23 53 37 63 100 140 122 49 345 299 274 221 64 259 272 293 303 308 304 300 279 207 202 195 196 185 91 107 104 93 67 43 246 125 51 48 107 178 177 172 185 180 189 180 162 124 127 161 122 113 139 129 230 210 103 129 145 124 135 136 140 191 312 332 188 187 175 174 182 186 187 187 193 193 196
346 346 344 345 346 346 346 343 343 345 355 11 10 40 59 18 20 349 293 172 202 218 241 239 186 267 275 272 307 325 327 327 336 184 180 185 163 153 111 39 57 53 86 138 170 257 121 121 189 183 205 197 191 206 191 147 138 133 109 98 113 112 94 75 95 262 290 66 69 148 126 148 153 154 190 285 192 197 197 188 187 189 191 190 187 191 193 203
345 344 343 344 344 345 345 341 342 347 3 20 21 50 98 358 6 326 312 289 240 213 230 244 198 249 268 271 306 346 354 351 350 10 163 174 142 127 358 18 63 28 309 173 150 12 83 154 224 216 211 204 198 209 192 120 116 122 122 112 88 106 90 56 108 235 34 79 277 194 126 140 152 153 178 351 195 205 203 197 197 197 198 195 190 192 196 203
345 343 343 344 343 344 343 340 343 352 12 20 30 83 164 318 294 264 310 321 280 218 214 253 261 267 270 273 276 292 51 359 326 331 150 147 119 138 310 60 100 194 302 96 102 23 44 214 241 230 206 183 219 213 183 153 137 117 107 121 161 159 98 50 108 82 15 101 183 210 116 98 126 170 195 217 212 222 218 209 208 204 200 197 195 195 192 190
343 342 343 342 341 343 342 340 341 359 11 7 30 109 14 349 303 256 267 328 290 268 190 215 223 252 280 285 237 163 103 162 293 306 176 145 96 162 124 84 125 161 27 98 141 143 178 243 248 217 142 121 337 255 157 163 158 134 129 132 189 179 141 256 128 101 36 72 121 116 78 34 31 197 226 242 229 242 249 233 225 215 208 204 199 192 182 179
342 341 341 339 339 343 341 338 345 13 357 350 25 82 360 355 334 230 202 108 299 297 229 203 196 203 249 286 159 145 130 195 199 279 186 139 100 140 141 131 121 101 264 155 143 165 227 242 177 109 120 146 186 277 154 168 236 228 170 157 170 185 184 118 115 113 56 48 103 111 86 312 202 198 228 244 232 237 258 243 231 224 221 217 206 194 183 180
341 340 338 337 338 341 340 341 24 4 344 338 80 3 353 353 343 181 157 46 330 298 270 216 238 220 216 150 159 169 102 233 220 227 180 146 139 137 148 161 117 186 230 156 126 171 263 248 146 116 123 142 151 221 201 176 215 292 212 186 177 183 179 116 116 118 75 3 194 141 129 255 198 201 220 224 221 224 227 230 230 223 217 214 204 196 189 185
341 338 337 336 335 340 344 356 360 344 338 336 19 338 343 348 341 170 139 40 353 297 310 355 5 257 229 151 174 162 58 306 245 210 171 164 158 117 104 244 47 199 202 159 142 183 270 255 137 139 166 150 157 228 236 173 146 296 237 180 162 161 149 132 136 138 149 211 206 174 175 269 196 214 219 211 217 221 215 226 233 222 207 202 197 188 183 184
340 337 336 333 335 343 349 298 321 333 334 312 336 333 339 347 86 165 101 32 350 293 300 286 27 76 255 203 143 110 98 279 283 67 179 178 170 65 96 223 330 211 196 120 156 238 220 253 97 145 158 160 185 238 234 161 134 265 256 154 145 147 146 149 148 143 152 90 86 177 173 49 228 224 212 202 214 223 219 225 231 222 209 201 195 186 180 182
338 337 333 330 335 341 334 309 313 316 253 315 332 335 336 343 151 148 70 60 316 293 242 278 264 256 303 230 116 117 216 269 27 331 279 164 161 56 81 216 183 200 216 119 181 263 209 200 219 192 177 194 211 222 200 163 147 268 27 105 126 126 127 138 130 111 110 85 96 213 190 211 263 236 198 192 210 223 218 219 220 215 210 203 193 186 183 184
337 336 330 328 334 336 329 315 301 278 299 329 339 335 334 346 137 79 63 109 299 298 214 338 293 284 349 39 25 359 314 329 128 270 337 105 151 66 129 208 161 170 260 118 180 255 241 209 198 165 165 210 227 227 176 146 143 100 86 82 79 75 75 77 73 37 38 69 201 201 184 210 278 237 178 185 211 220 214 212 215 210 206 203 194 185 184 184
336 334 326 326 330 332 328 312 285 254 314 336 337 333 338 82 95 53 49 39 297 268 253 5 299 289 50 51 327 325 283 273 290 328 30 74 342 27 132 187 104 116 319 26 204 246 267 233 179 150 186 200 190 189 138 123 128 106 92 86 75 63 57 58 43 33 35 297 244 192 179 179 280 245 186 194 209 210 205 205 207 204 203 202 194 185 183 183
335 331 322 321 319 309 313 313 293 287 325 332 334 337 9 77 62 80 83 275 270 304 335 326 293 23 86 97 291 298 195 273 313 71 60 22 21 21 46 188 43 58 6 355 292 285 316 290 192 209 208 169 108 55 60 144 152 118 100 112 92 45 16 42 18 33 138 249 267 192 173 170 231 255 207 210 211 200 200 201 198 197 199 199 194 187 184 184
336 327 316 313 303 277 254 265 295 307 319 330 338 360 79 49 27 96 279 305 304 312 320 275 279 104 104 97 282 268 202 257 316 111 129 96 100 153 200 191 173 17 344 295 293 329 308 233 231 251 211 147 114 49 39 144 171 123 117 127 98 46 3 28 324 266 210 242 225 124 143 176 235 253 218 214 215 205 203 201 195 193 193 194 191 186 185 184
334 323 315 308 293 277 258 266 288 300 318 335 354 42 81 70 42 226 276 321 270 263 268 274 275 139 117 68 297 271 227 252 304 90 125 109 105 253 254 206 170 148 261 224 292 349 323 299 296 269 252 151 133 111 103 173 195 157 148 143 117 108 96 175 258 255 252 263 198 118 125 216 259 268 229 213 211 206 203 201 197 191 190 191 187 181 183 184
334 325 319 306 291 287 271 262 273 289 322 355 47 65 65 67 235 242 272 265 255 273 291 274 258 88 87 188 247 231 201 284 246 113 86 58 60 275 280 257 175 139 142 190 267 133 108 309 258 186 216 166 152 158 169 171 172 186 177 138 141 152 150 183 207 204 216 258 119 125 153 207 209 256 250 229 217 201 194 196 192 188 189 186 176 172 178 184
335 327 319 309 301 297 258 242 250 255 349 44 65 68 78 183 254 252 244 249 270 303 299 298 115 80 2 289 279 203 170 261 285 99 80 109 172 197 222 239 196 150 123 161 260 172 153 260 249 248 220 166 168 171 160 147 141 219 188 108 156 181 145 142 193 169 132 110 139 158 221 227 205 253 256 247 277 202 189 186 178 180 185 175 169 173 178 183
338 332 322 306 301 292 237 231 204 169 117 75 62 57 155 214 222 186 217 244 316 310 320 354 69 97 314 298 325 348 139 214 71 65 18 220 208 208 217 234 196 173 159 163 220 196 138 274 272 303 299 181 178 165 151 149 154 164 149 147 184 164 121 106 269 9 87 118 222 191 256 289 308 282 249 138 136 200 188 186 182 182 179 175 180 179 177 181
340 338 317 297 317 290 224 181 152 140 101 81 80 115 220 224 195 182 228 284 307 305 28 14 18 157 242 274 307 315 331 2 31 44 333 297 270 223 233 262 199 185 192 175 211 227 172 277 287 311 317 267 178 135 119 124 136 124 187 185 139 76 80 92 81 344 54 169 265 224 249 289 306 284 295 135 184 203 193 189 186 183 180 183 187 180 177 180
335 333 318 339 346 252 168 144 138 126 77 73 74 263 214 224 212 198 244 299 300 48 101 149 237 191 185 183 254 276 312 28 359 333 318 323 274 216 219 279 215 195 215 186 160 249 151 270 291 290 305 313 50 108 83 341 51 98 196 187 132 94 82 107 141 229 156 190 283 270 265 265 211 228 235 193 203 202 195 191 186 187 187 188 189 182 179 177
334 348 355 358 15 134 147 139 128 87 56 67 230 260 216 252 253 225 237 280 308 109 134 223 220 128 171 165 195 256 313 140 167 141 116 119 263 216 179 255 240 221 229 184 159 216 137 124 276 291 345 347 27 106 148 297 340 354 91 163 130 122 155 165 173 179 157 177 259 294 319 261 226 220 197 200 204 192 188 193 191 193 192 190 189 184 180 177
353 66 333 349 66 142 144 127 86 57 55 107 211 225 259 270 272 258 237 227 209 155 184 230 170 87 238 204 185 184 54 101 160 122 140 195 289 279 234 209 259 272 220 148 129 162 105 106 263 308 349 41 10 182 161 167 213 250 177 169 190 123 150 181 192 162 135 147 194 199 304 266 249 227 205 217 211 190 186 192 194 196 192 192 193 188 183 179
15 72 315 351 129 151 137 81 39 61 77 294 226 235 280 274 280 296 281 215 208 215 179 181 162 132 182 202 229 215 73 46 30 100 221 228 95 291 260 161 258 307 10 67 76 127 152 109 90 312 330 153 238 247 158 179 204 190 170 171 176 163 142 145 248 270 120 126 173 162 244 269 271 295 288 279 240 196 190 191 193 194 191 192 196 193 187 181
52 88 318 22 153 159 90 64 312 71 133 261 244 241 280 286 273 299 313 289 234 22 57 107 152 142 167 183 194 108 103 88 347 239 193 192 156 197 271 353 352 227 68 26 287 195 148 106 99 261 263 235 260 287 121 211 205 164 151 150 147 144 127 133 200 239 153 108 178 129 223 268 278 317 317 311 304 175 164 178 183 185 189 186 185 186 181 178
106 262 319 150 168 162 48 80 310 7 200 255 269 245 260 275 273 292 314 319 338 38 36 24 233 95 302 235 138 102 111 104 2 280 208 249 219 218 268 335 350 75 77 12 312 347 73 73 73 284 295 306 305 336 11 201 149 119 38 61 113 206 167 157 186 182 151 171 157 90 281 265 290 329 331 325 347 69 113 146 153 156 157 154 159 162 159 164
165 260 317 175 192 217 53 150 284 339 274 296 313 288 277 234 234 265 288 291 285 87 55 348 303 86 67 8 86 105 112 93 64 309 289 188 261 265 292 344 18 37 27 306 270 25 66 78 74 49 356 350 346 357 0 352 22 62 357 4 353 290 145 164 153 80 116 201 151 119 246 259 285 341 2 2 24 62 75 98 123 139 143 140 146 144 143 149
325 227 296 270 217 185 115 170 158 213 291 319 317 305 314 285 244 218 235 269 232 125 108 302 329 63 70 38 49 44 40 76 109 340 10 266 278 309 318 347 42 39 336 277 175 103 109 127 106 110 108 90 42 336 306 306 325 340 352 345 340 14 98 166 140 93 165 227 151 151 217 260 302 358 22 12 25 48 47 66 87 106 128 136 140 142 145 149
35 157 291 332 11 79 158 203 105 153 275 322 315 302 297 291 296 239 202 233 17 97 77 336 350 44 47 47 50 21 14 38 73 52 19 308 291 286 304 339 47 27 343 351 56 77 95 90 85 116 130 160 185 228 266 299 38 1 341 340 351 9 61 119 109 137 188 182 191 227 217 318 340 353 17 6 14 36 43 66 85 99 116 130 145 152 150 145
68 67 153 57 354 27 2 351 67 113 233 186 247 293 266 285 315 317 238 173 83 75 70 15 18 52 49 64 81 35 357 13 33 36 346 297 284 278 305 341 35 10 352 1 22 57 92 72 60 102 97 108 201 240 304 27 74 44 1 357 5 12 38 79 91 264 232 141 236 292 336 33 341 337 2 358 10 36 43 57 90 125 130 127 135 141 138 125
138 295 167 145 247 199 172 279 9 56 260 205 203 292 306 312 314 292 283 352 43 62 93 20 5 24 35 105 110 78 357 17 17 351 321 318 317 329 338 338 4 9 5 360 357 73 106 115 192 115 65 12 7 359 3 40 82 58 37 20 14 24 39 58 53 318 351 140 229 289 21 54 339 330 358 4 34 58 57 61 82 116 123 127 134 137 147 132
33 335 299 7 131 201 207 263 346 38 358 205 214 310 303 307 300 275 279 1 10 8 91 94 321 335 27 82 108 97 68 81 24 313 279 316 320 348 11 332 327 5 16 5 347 62 101 162 236 108 72 20 357 35 71 89 67 48 41 27 26 40 46 50 29 353 28 125 199 332 74 63 9 345 26 38 64 68 61 64 75 99 119 136 143 143 159 162
17 333 313 5 15 250 258 330 63 76 24 18 300 280 258 267 289 299 303 90 105 333 75 129 193 237 56 77 94 105 170 163 151 226 177 126 347 9 120 241 293 351 12 16 338 13 78 106 314 72 70 350 313 326 74 86 92 65 42 27 27 41 43 38 26 10 18 36 358 40 74 57 24 52 65 62 68 67 63 62 64 83 120 148 160 157 161 165
312 248 298 44 345 306 285 339 81 103 46 18 247 268 274 250 251 306 305 228 169 193 187 163 168 136 47 61 86 136 199 175 171 203 186 157 141 153 192 181 167 339 353 8 334 353 63 102 38 68 90 285 306 323 342 24 71 51 30 19 14 26 37 32 32 33 19 337 340 37 71 29 2 65 76 72 70 68 67 63 58 61 85 125 154 146 129 150
352 304 19 94 287 323 358 14 38 92 188 230 221 253 272 262 259 161 230 288 192 179 188 170 153 106 60 61 98 203 208 187 190 209 185 159 143 104 80 127 143 154 314 357 359 8 79 130 143 115 147 218 278 313 332 24 37 6 354 360 11 40 63 42 35 30 16 350 346 58 98 226 27 84 93 88 79 75 69 64 61 56 63 85 106 90 63 62
Height
805 804 803 802 801 800 799 798 796 795 794 793 791 790 789 788 786 785 784 783 782 781 781 780 779 778 777 776 776 775 773 772 771 772 770 763 760 762 763 764 765 766 768 769 770 772 774 776 776 777 779 780 782 782 782 781 781 787 798 808 810 811 807 800 800 798 794 795 797 795 794 796 799 797 792 793 798 801 803 802 801 800 799 801 803 806 809 811
805 804 803 802 801 799 798 797 796 795 794 792 791 790 788 787 786 785 784 783 782 781 780 779 778 778 777 777 776 774 773 771 770 769 764 759 760 761 762 764 765 766 767 769 770 771 774 777 777 778 780 783 784 783 784 782 783 791 801 808 807 803 797 790 790 790 788 791 794 794 795 795 797 796 793 799 806 803 807 809 806 807 806 805 805 808 810 811
805 804 803 802 801 799 798 797 796 794 793 792 790 789 788 786 785 784 783 782 781 780 780 779 778 778 777 777 775 774 773 771 769 764 760 758 759 760 761 763 764 766 767 769 770 771 773 775 776 778 782 786 786 785 788 785 786 791 797 807 802 794 792 788 787 787 785 785 791 795 795 796 795 793 793 800 807 806 809 811 809 812 810 808 808 809 811 812
804 803 802 802 800 799 798 796 795 794 792 791 790 788 787 786 784 784 782 781 780 780 779 779 778 778 778 776 775 775 773 772 767 760 759 759 758 759 761 763 764 766 768 769 771 772 772 774 776 778 784 789 787 786 790 787 787 791 794 801 796 792 794 788 786 786 784 783 788 794 795 797 795 793 795 799 808 811 808 805 805 808 808 808 809 809 811 812
804 803 802 801 800 799 797 796 795 793 792 791 789 788 786 785 784 783 782 781 780 780 779 779 778 778 778 776 776 774 774 777 768 758 759 759 759 760 761 763 765 766 768 769 771 772 773 774 776 780 785 790 790 789 790 784 784 791 792 794 792 793 794 789 786 786 786 788 791 795 797 796 794 795 796 797 805 807 801 799 800 801 802 805 807 809 811 812
804 803 802 801 800 799 797 796 794 793 791 790 789 787 786 784 783 782 782 781 780 780 779 779 778 778 777 776 776 774 775 777 765 758 760 759 760 760 761 764 765 766 768 769 770 771 774 775 778 784 788 790 792 791 788 781 782 792 793 791 792 792 793 790 787 786 787 791 795 796 794 793 797 800 797 796 799 797 793 796 798 800 800 802 806 809 811 813
804 803 802 801 799 798 796 795 794 792 791 789 788 786 785 784 783 782 781 781 780 780 779 779 778 778 777 776 776 775 775 771 761 760 761 759 761 760 762 764 764 766 767 769 770 772 774 777 782 785 789 791 791 789 785 781 781 789 795 793 793 792 792 790 787 785 784 788 790 791 793 796 800 801 798 798 797 793 793 795 798 801 802 803 806 809 811 812
804 803 801 800 799 797 796 795 793 791 790 788 787 786 785 783 782 782 781 780 780 779 779 778 778 777 777 777 776 775 774 767 760 761 760 760 761 760 763 764 765 767 767 769 769 771 774 778 782 782 790 790 788 788 783 784 787 789 795 794 792 792 791 788 786 784 783 786 788 790 796 799 798 798 799 799 796 793 794 796 799 802 804 806 808 810 811 813
803 802 801 800 798 797 795 794 792 791 789 788 787 785 784 783 782 782 781 780 779 779 779 778 778 777 778 777 776 775 770 763 760 761 760 761 761 761 763 763 765 766 767 770 769 772 775 779 780 779 787 787 784 786 782 788 792 788 792 794 794 794 791 789 788 786 786 788 790 794 801 801 797 797 801 799 795 794 795 799 801 804 807 808 809 810 812 813
803 802 801 799 798 797 795 793 792 790 789 787 786 785 784 783 782 781 780 780 779 779 779 779 778 778 778 777 777 775 766 761 761 761 761 762 762 762 763 764 765 766 768 770 770 772 773 775 776 774 781 784 783 785 782 786 788 785 790 794 794 794 792 791 791 790 789 792 794 798 804 802 797 800 805 800 794 794 798 803 803 806 809 809 810 811 812 814
802 801 800 799 797 796 794 793 791 790 789 787 786 784 783 783 782 781 780 779 779 779 778 778 778 778 779 777 778 773 763 761 762 761 762 762 762 763 763 764 765 766 768 771 772 772 771 772 772 774 782 783 783 786 783 781 782 785 790 794 796 794 794 794 795 794 794 798 797 797 803 803 800 803 805 799 795 795 800 806 806 808 811 810 811 811 812 814
802 801 799 798 797 795 794 792 790 789 788 787 786 784 783 782 782 781 780 779 779 778 778 778 778 778 778 778 776 768 760 761 761 761 762 762 763 764 764 765 765 767 769 771 772 771 772 772 771 778 782 780 785 790 786 779 781 787 788 797 801 796 799 800 798 798 798 803 799 797 808 810 806 805 802 797 796 797 801 806 808 810 811 811 812 812 813 814
801 800 799 798 796 794 793 791 790 789 787 786 785 783 783 782 781 780 780 779 779 778 778 778 778 778 780 776 767 761 760 761 761 761 762 762 763 764 764 765 766 768 769 771 772 771 772 772 773 778 777 780 787 786 782 779 783 789 790 798 804 805 809 804 800 800 799 805 800 801 820 820 809 805 801 797 798 801 806 808 809 811 812 813 814 814 814 814
801 800 798 797 795 794 792 790 789 787 786 785 784 783 782 780 780 780 779 779 779 779 778 778 778 779 780 772 761 760 761 760 760 760 761 762 763 763 764 765 766 768 770 771 771 771 772 772 773 776 775 779 782 779 783 786 788 793 795 801 807 816 820 807 800 802 802 806 799 803 823 822 809 806 802 798 799 803 809 810 810 812 812 814 814 815 815 815
800 799 798 796 795 793 791 790 788 786 785 784 783 782 780 779 779 778 779 779 779 779 778 778 779 779 779 770 760 760 760 759 760 760 760 762 762 763 763 764 767 768 769 771 771 771 772 773 775 779 779 776 778 786 794 795 794 796 804 812 811 817 824 814 805 803 804 806 800 805 822 821 811 808 803 800 801 803 809 811 811 813 813 814 815 815 815 815
800 799 797 796 794 792 790 788 787 786 784 783 781 780 779 778 778 778 779 778 778 778 778 779 778 779 779 769 760 760 760 760 760 760 760 760 761 762 763 765 767 768 770 770 770 771 771 773 776 778 780 781 787 794 800 805 805 803 808 817 815 815 821 822 815 806 802 804 804 807 819 822 814 809 805 802 803 805 809 812 812 814 814 814 815 815 815 816
800 798 797 795 793 791 789 787 786 784 783 782 780 779 778 777 777 778 778 778 779 778 778 779 778 779 774 763 761 763 760 760 760 759 759 759 761 762 763 765 767 768 769 770 771 772 772 775 778 780 783 788 792 795 807 821 819 812 811 814 816 815 817 823 820 809 801 804 808 809 815 821 815 809 808 805 805 808 810 812 813 813 814 814 815 815 815 816
799 798 796 794 792 791 789 786 785 783 782 781 779 778 778 777 778 778 778 778 778 778 779 779 778 781 775 763 763 765 760 759 759 758 759 759 761 762 763 765 767 768 770 773 774 774 776 779 782 787 791 794 795 797 811 819 814 813 814 814 816 814 815 819 818 810 804 806 810 812 817 820 815 810 810 808 807 809 810 811 812 813 813 814 814 815 815 816
798 797 795 794 792 790 788 786 784 783 781 780 779 778 778 778 778 778 778 778 778 778 778 777 776 780 778 767 762 762 758 758 758 757 758 758 760 762 764 765 766 769 775 779 780 778 779 784 788 795 800 800 798 797 801 801 801 807 810 810 814 816 817 817 814 809 805 809 813 813 818 819 815 813 812 810 809 811 811 811 812 813 813 814 815 815 815 815
797 796 794 793 791 789 787 785 783 782 781 780 779 778 780 781 781 780 778 776 776 774 773 773 773 774 772 765 762 761 758 757 757 757 758 758 759 763 765 766 769 773 778 783 784 780 780 791 796 796 797 796 794 793 792 791 794 800 805 808 811 815 818 815 813 809 805 815 820 814 817 820 815 814 813 811 810 812 813 813 814 814 813 814 814 814 814 813
797 795 794 792 790 789 787 785 783 782 781 781 779 780 784 786 788 787 780 775 770 769 771 769 770 770 766 763 762 761 762 761 758 757 758 758 759 765 770 770 776 782 783 783 783 780 783 795 797 789 788 789 789 790 790 791 793 798 804 809 812 814 816 814 813 810 806 818 827 818 818 822 818 815 813 812 813 813 813 813 814 813 813 813 813 813 813 811
796 794 792 791 789 788 786 784 783 782 781 781 780 782 784 785 786 785 783 781 772 766 769 768 769 769 763 761 762 762 767 768 763 758 758 759 761 768 773 774 781 785 784 783 785 789 793 796 791 785 787 789 789 789 791 793 794 799 805 811 814 813 815 813 811 812 808 817 828 823 822 825 820 815 812 811 813 812 810 810 811 811 812 812 812 812 812 811
795 793 791 790 788 787 785 783 782 782 781 782 781 782 783 783 782 781 784 787 778 768 768 769 769 768 764 762 760 762 768 770 769 763 756 760 764 768 773 777 782 784 784 786 789 797 801 794 786 785 788 790 791 791 792 794 795 799 805 811 814 813 815 815 814 816 811 813 822 824 827 829 823 819 815 812 812 811 809 808 808 809 810 809 807 808 809 811
794 792 790 788 787 786 784 783 782 782 781 781 782 782 782 781 781 781 782 786 783 772 766 766 765 765 764 760 758 762 767 768 768 763 756 760 767 769 772 776 782 785 786 786 789 795 797 789 784 786 788 789 792 792 792 796 798 799 801 806 810 811 811 812 815 817 814 815 817 820 833 834 826 826 821 813 812 811 809 808 808 807 807 806 806 806 807 807
793 791 789 787 786 785 783 782 781 782 781 780 781 780 780 780 778 779 782 788 789 775 765 764 764 763 759 758 759 760 765 766 763 759 755 758 765 770 773 774 780 787 788 787 790 794 792 784 783 786 788 790 793 794 793 795 799 800 797 796 800 805 806 809 816 819 823 828 818 817 838 840 826 827 824 815 814 813 810 809 808 806 806 807 807 807 807 806
793 791 788 786 785 784 783 782 781 782 781 780 780 780 780 779 778 778 783 794 793 778 770 768 768 764 758 760 760 759 770 769 757 755 756 756 758 764 774 777 778 784 785 784 788 790 786 781 781 785 787 789 793 795 792 791 800 802 793 789 794 801 806 811 815 820 829 832 818 814 834 841 832 827 820 816 817 813 810 809 807 805 805 806 806 805 806 806
792 790 787 786 784 783 783 782 782 782 780 780 780 779 779 777 777 776 785 804 800 780 774 772 768 764 760 761 759 764 780 773 756 756 755 756 757 759 773 781 780 782 778 783 793 790 783 782 783 784 786 791 794 795 791 788 798 801 789 788 796 801 807 812 814 821 824 822 821 820 826 838 838 825 814 813 818 816 812 810 807 804 804 804 804 803 804 804
790 788 786 785 783 784 783 782 783 781 780 781 779 779 778 776 777 778 794 815 802 777 773 770 763 759 758 759 759 765 773 767 766 766 753 755 759 761 774 779 778 780 775 784 798 791 781 783 784 784 787 792 791 788 785 785 795 797 788 790 797 800 806 810 814 820 818 821 833 830 825 837 837 818 810 814 820 819 813 808 805 802 801 801 802 801 801 802
789 787 785 784 783 783 782 782 781 779 780 779 778 779 776 775 777 783 803 815 794 773 771 767 761 761 761 763 764 765 765 764 770 766 754 758 759 761 773 775 774 779 776 781 791 786 779 778 777 780 787 789 784 781 781 784 793 792 788 793 799 804 810 814 820 822 820 827 837 831 826 838 835 818 816 820 819 815 808 804 802 799 798 799 799 800 799 800
787 786 784 783 782 781 782 781 779 779 779 778 778 777 774 777 783 798 816 810 790 777 771 767 767 767 767 770 771 769 768 768 766 762 761 764 761 761 768 769 770 778 780 781 784 781 776 772 773 776 779 778 777 780 781 785 790 788 792 800 807 812 814 819 825 826 831 835 831 824 822 833 837 821 814 813 805 800 800 801 800 797 796 796 797 798 798 798
786 784 782 781 781 781 781 779 778 778 778 778 778 774 776 784 794 812 817 798 786 782 772 771 772 769 770 776 776 772 770 769 765 766 769 769 769 770 772 774 776 781 786 786 783 780 777 776 775 770 767 770 776 781 781 783 787 789 797 804 814 824 823 827 831 832 843 842 827 821 818 830 839 819 801 797 788 787 792 794 796 795 794 794 794 795 795 796
783 782 781 779 779 780 779 778 777 778 778 777 777 775 783 796 805 814 806 789 789 787 776 776 775 771 773 776 777 774 772 772 767 769 773 775 777 777 778 781 782 790 799 795 788 783 776 773 772 766 762 766 776 786 789 790 790 794 802 806 820 839 841 842 844 841 844 838 824 820 821 831 831 805 790 790 785 783 784 783 787 789 790 790 791 793 793 793
781 779 778 778 777 777 777 777 776 778 778 777 778 780 789 806 812 808 800 793 792 783 774 776 774 772 775 776 777 774 773 774 770 770 773 776 780 779 778 779 778 787 798 797 794 789 781 773 769 768 766 763 770 786 800 803 798 799 802 805 816 837 847 852 853 846 839 831 821 819 825 831 820 794 782 782 779 777 777 777 779 781 784 785 786 789 791 792
779 777 776 775 775 775 775 776 776 777 777 777 781 786 797 811 810 801 798 793 786 777 774 776 774 775 776 777 778 774 775 776 771 771 775 777 783 783 780 778 777 780 786 793 794 793 795 787 771 767 766 763 765 773 784 792 796 796 791 793 802 813 826 837 842 839 835 830 826 825 827 824 811 791 778 774 773 772 772 774 775 777 780 781 783 788 789 790
777 775 775 773 774 774 774 775 775 776 777 778 784 794 804 811 806 800 797 787 781 779 776 774 775 779 780 778 776 773 775 777 772 773 776 779 783 782 778 776 776 777 782 793 794 790 798 790 766 759 759 758 763 763 765 780 797 796 787 791 798 795 802 819 827 826 828 833 832 829 821 806 793 781 772 773 774 771 771 772 774 778 779 781 785 787 787 788
776 774 773 772 773 774 774 774 775 775 776 780 791 800 802 801 797 795 789 780 780 780 778 777 777 782 786 782 779 774 773 775 775 776 778 780 781 779 776 772 770 772 776 785 788 787 794 785 762 758 759 754 757 759 760 773 788 793 792 794 792 785 791 813 825 821 824 834 829 822 814 799 789 780 771 774 775 774 775 773 773 776 776 780 783 784 785 786
774 773 772 771 772 773 773 774 775 775 777 783 795 800 796 790 786 784 779 775 778 777 781 786 781 782 788 786 783 778 774 776 776 777 781 784 781 777 774 768 766 767 766 771 778 778 785 784 764 758 763 756 751 756 759 760 768 785 794 787 784 788 790 807 829 830 828 833 825 819 818 808 802 792 778 777 778 776 777 773 773 775 775 778 780 780 782 782
774 772 772 771 772 772 773 774 774 776 779 787 796 796 793 787 781 778 775 773 776 776 781 787 781 779 785 787 785 779 777 780 779 780 783 784 781 774 771 767 763 763 760 764 774 772 777 786 773 760 764 760 751 758 769 763 759 772 779 772 778 797 803 811 830 832 827 831 824 820 821 812 803 794 780 777 778 775 776 774 773 774 774 775 776 777 780 780
774 774 774 772 771 771 773 774 774 778 784 791 797 794 790 786 778 774 773 772 775 777 780 781 778 779 781 782 782 778 778 781 780 781 784 785 781 771 767 767 764 763 760 762 770 771 773 787 783 765 761 763 759 765 778 777 768 768 773 774 777 789 797 804 812 810 813 825 823 818 818 804 788 780 772 769 770 770 774 774 772 771 771 771 772 774 777 778
775 776 777 773 771 773 773 774 776 782 788 793 796 792 788 784 775 769 768 770 772 773 775 777 777 779 778 776 778 778 778 780 778 781 783 782 779 771 764 764 764 763 762 761 766 769 772 783 787 773 762 769 773 770 773 778 778 776 780 785 783 783 788 793 797 797 800 813 819 819 813 789 772 773 769 765 765 765 768 770 770 769 768 769 770 771 774 776
776 779 779 773 772 774 773 776 782 788 792 794 794 791 786 781 775 769 765 766 767 766 768 772 774 775 775 775 776 776 777 780 780 781 781 778 779 776 765 761 764 763 762 764 765 769 773 779 787 786 775 774 775 766 763 770 775 776 779 782 782 784 788 796 804 800 794 801 808 812 805 781 770 774 772 766 765 763 764 767 768 769 768 769 769 769 771 774
779 782 779 774 775 774 775 783 790 792 793 791 789 787 782 777 775 772 767 765 765 764 765 768 771 773 773 773 775 775 776 781 782 780 778 775 777 775 764 758 762 762 761 768 767 764 768 775 786 792 782 774 770 765 767 771 769 770 773 776 778 780 781 791 801 796 795 800 800 802 801 783 773 776 771 767 766 763 764 766 768 770 769 769 770 770 771 773
782 783 778 775 776 775 780 789 792 792 791 787 784 782 779 777 776 773 770 768 767 766 767 769 770 771 772 771 773 775 776 780 782 779 775 774 772 767 761 758 760 760 762 768 768 762 768 781 789 790 781 772 767 764 766 768 768 771 774 773 776 779 778 781 784 783 791 799 797 801 801 781 773 777 771 768 768 765 766 766 768 771 770 770 772 771 772 774
787 785 780 777 777 777 784 791 793 793 790 786 784 781 776 775 774 773 772 770 768 769 770 770 770 770 771 771 772 774 777 780 782 779 776 776 770 761 759 759 758 761 765 768 767 764 774 788 792 793 795 789 782 781 777 772 773 777 779 778 777 779 779 778 779 781 789 795 793 798 797 780 774 778 774 770 770 768 769 768 768 771 772 772 773 773 774 775
788 786 782 779 777 779 784 788 789 792 791 788 786 783 779 775 771 769 770 768 767 769 771 770 769 768 769 771 773 775 775 777 780 779 776 776 769 761 760 760 759 762 765 764 761 761 775 791 789 792 806 809 806 806 798 788 786 783 784 785 783 781 779 778 780 782 788 796 793 788 784 777 775 779 777 776 775 773 773 771 770 772 773 773 774 775 775 776
787 785 784 782 779 781 784 784 785 788 789 790 789 785 782 780 772 766 767 768 767 767 770 770 769 769 771 773 776 777 777 776 778 779 778 776 771 765 762 759 758 762 763 760 759 762 777 790 788 789 800 806 807 804 795 791 795 795 793 791 788 786 782 778 780 782 784 792 791 784 779 775 778 784 784 782 780 778 777 775 774 774 774 775 775 775 775 775
789 788 788 787 786 785 786 786 786 787 788 789 790 785 782 781 777 770 766 767 767 767 770 772 771 773 775 775 779 782 781 779 778 779 781 779 773 768 763 760 760 762 761 759 761 766 776 787 790 791 794 797 798 795 789 791 798 801 799 795 792 790 783 780 786 791 789 786 785 789 790 785 786 791 788 785 784 781 780 778 776 776 776 776 776 776 776 777
790 790 788 788 790 790 788 787 787 788 788 788 788 787 784 782 781 777 770 767 767 767 771 776 776 776 776 776 779 783 785 784 783 782 781 781 777 771 766 763 761 761 763 763 763 767 777 786 789 789 789 790 792 790 789 793 797 799 799 797 796 795 792 792 798 801 797 790 788 795 797 792 793 794 788 785 785 782 780 779 777 776 776 777 778 778 779 780
791 791 788 787 789 790 788 786 787 787 787 788 787 786 786 784 782 778 772 770 771 770 773 779 780 777 776 775 777 783 787 788 789 786 782 781 781 777 775 771 765 762 765 767 766 768 778 786 788 787 788 788 790 791 792 794 796 798 799 798 797 799 799 800 802 801 798 796 798 800 798 794 794 792 787 785 784 781 780 779 778 778 779 779 780 781 781 782
794 794 792 790 789 789 787 787 787 787 786 788 788 785 785 784 781 777 774 773 775 774 773 777 779 777 776 775 776 781 783 782 784 783 780 781 781 779 779 778 772 768 768 770 771 770 777 788 790 789 792 793 789 789 791 794 797 799 800 800 798 799 800 800 800 801 800 801 802 800 797 796 792 787 786 785 783 782 782 781 780 781 780 781 782 783 784 785
796 796 796 795 791 788 788 787 788 788 787 788 789 786 784 783 780 778 774 770 773 774 771 773 777 778 777 777 777 779 778 776 777 775 774 777 778 776 776 776 775 773 771 773 776 773 776 790 794 793 801 803 795 791 792 790 791 795 800 802 802 801 803 802 801 801 802 804 803 799 798 799 793 787 787 786 784 785 784 783 783 782 782 782 783 784 786 787
797 795 796 796 793 789 788 788 789 789 787 787 787 785 783 781 778 778 776 771 770 770 769 771 774 776 778 779 777 774 771 771 772 770 770 772 773 772 773 773 774 775 774 775 778 778 781 788 792 796 804 806 800 798 794 787 792 802 804 803 803 803 805 805 802 800 799 800 802 800 799 797 791 788 788 787 786 786 785 783 784 783 783 784 784 785 787 787